sat.trackr.live / text

‹ back to catalog

STARLINK-5173

NORAD 54059 · 2022-136J

PAYLOAD ACTIVE UNKNOWN

§ Identity

Operator
Country
US
Launch date
2022-10-20
Launch site
AFETR
Launch vehicle
Mass (kg)
RCS (m²)

Purposes: comms

External: N2YO · Heavens-Above · Gunter

§ Orbital elements

Epoch: 2026-09-20T22:26:23.434080Z

Period
93.85 min
Inclination
53.1594°
Eccentricity
0.0001234
Mean motion
15.34386005 rev/d
Perigee alt
461.9 km
Apogee alt
463.6 km
Semi-major
6,840.9 km
B*
3.7418e-5
RAAN
175.4465°
Arg perigee
88.5812°
Mean anomaly
271.5333°
Rev number
21,648

§ Raw data

STARLINK-51731 54059U 22136J   26263.93499345  .00000888  00000+0  37418-4 0  99922 54059  53.1594 175.4465 0001234  88.5812 271.5333 15.34386005216486

JSON: /api/v1/satellites/54059 · /tle

For live sub-satellite position, see the globe view (requires WebGL).

§ Visibility from observer

Set your observer location to see the next 7 days of passes ≥ 10°. The values pass through the URL so the page stays shareable.

No JS? Fill the form by hand. The geolocation button needs JavaScript.